Regional Weather Roundup
Issued by NWS Cleveland, OH

Home | Current Version | Previous Version | Text Only | Print | Product List | Glossary Off
Versions: 1 2 3 4 5 6 7 8 9 10 11 12 13 14 15 16 17 18 19 20 21 22 23 24 25 26 27 28 29 30 31 32 33 34 35 36 37 38 39 40 41 42 43 44 45 46 47 48 49 50

000
ASUS41 KCLE 250210
RWRCLE
OHIO REGIONAL WEATHER ROUNDUP
NATIONAL WEATHER SERVICE CLEVELAND, OH
900 PM EST SAT FEB 24 2018

NOTE: "FAIR" INDICATES FEW OR NO CLOUDS BELOW 12,000 FEET WITH NO
SIGNIFICANT WEATHER AND/OR OBSTRUCTIONS TO VISIBILITY.

OHZ001>008-015>018-024>027-034-035-043-044-250300-
   NORTHWEST OHIO

CITY           SKY/WX    TMP DP  RH WIND       PRES   REMARKS
DEFIANCE       LGT RAIN  37  34  89 E14       29.88F FOG
FINDLAY        LGT RAIN  41  37  86 NE12      29.87F FOG
TOLEDO EXPRESS LGT RAIN  37  36  96 E12       29.91F
TOLEDO EXEC    MIX PCPN  37  33  85 E14       29.94F
LIMA           LGT RAIN  47  46  97 E8        29.86F
$$

OHZ009>014-019>023-028>033-038-089-250300-
   NORTHEAST OHIO

CITY           SKY/WX    TMP DP  RH WIND       PRES   REMARKS
CLE-HOPKINS    CLOUDY    44  41  89 E9        29.96F
CLE-LAKEFRONT  FAIR      37  33  85 NE13      29.95F
CUY CO. ARPT   CLOUDY    43  39  87 E6        29.96F
LORAIN-ELYRIA  CLOUDY    39  33  79 NE10      29.94F
ASHTABULA      FAIR      38  34  85 E3        30.00F
AKRON-CANTON   CLOUDY    47  41  80 SE16      29.90F
WOOSTER        MOCLDY    46  43  89 SE12      29.94F
MANSFIELD      LGT RAIN  46  45  96 SE13      29.90F
YOUNGSTOWN     CLOUDY    46  41  82 E12       29.96F
$$

OHZ042-051>053-060>062-070>072-077>081-250300-
  SOUTHWEST OHIO

CITY           SKY/WX    TMP DP  RH WIND       PRES   REMARKS
CINC-COVINGTON HVY RAIN  52  51  97 E9        29.80F FOG
CINC-LUNKEN    HVY RAIN  52  52 100 NE7       29.83F FOG
HAMILTON       RAIN      53  51  93 E9        29.82F FOG
DAYTON         LGT RAIN  49  49 100 E14       29.84F
WRIGHT-PAT AFB LGT RAIN  50  48  93 E9        29.84F
DAYTON GENERAL HVY RAIN  52  49  89 E13       29.83F FOG
WILMINGTON     RAIN      50  50 100 SE10      29.85F FOG
$$

OHZ036-037-039>041-045>050-054>059-063>069-073>076-082>088-250300-
  CENTRAL AND SOUTHEAST OHIO

CITY           SKY/WX    TMP DP  RH WIND       PRES   REMARKS
COLUMBUS       RAIN      50  49  96 VRB6      29.89F FOG
OSU AIRPORT    HVY RAIN  49  49 100 E8        29.88F FOG
BOLTON FIELD   RAIN      48  48 100 E7        29.87F
RICKENBACK AFB LGT RAIN  49  49 100 E12       29.86F
NEWARK         RAIN      49  47  93 E7        29.90F FOG
MARION         LGT RAIN  47  45  93 SE12      29.89F
LANCASTER      LGT RAIN  49  48  97 SE13      29.89F
ZANESVILLE     RAIN      49  46  90 SE10      29.93F FOG
NEW PHILLY     NOT AVBL
$$




USA.gov is the U.S. government's official web portal to all federal, state and local government web resources and services.